Regional Weather Roundup
Issued by NWS

Home | Current Version | Previous Version | Text Only | Print | Product List | Glossary Off
Versions: 1 2 3 4 5 6 7 8 9 10 11 12 13 14 15 16 17 18 19 20 21 22 23 24 25 26 27 28 29 30 31 32 33 34 35 36 37 38 39 40 41 42 43 44 45 46 47 48 49 50

639
ASUS45 KABQ 010101
RWRNM
NEW MEXICO REGIONAL WEATHER ROUNDUP
NATIONAL WEATHER SERVICE ALBUQUERQUE NM
700 PM MDT SUN APR 30 2017

NOTE: "FAIR" MEANS FEW OR NO CLOUDS BELOW 12,000 FEET AGL WITH NO
       SIGNIFICANT WEATHER OR OBSTRUCTIONS TO VISION.

      THIS PRODUCT IS RELEASED AS TWO VERSIONS.  ONE VERSION NEAR
      THE TOP OF THE HOUR CONTAINING PRELIMINARY DATA FROM ALBUQUERQUE
      AND OTHER STATIONS.  A FINAL VERSION WITH ADDITIONAL DATA IS
      ISSUED ABOUT 10 MINUTES AFTER THE HOUR.

NMZ501-503-504-510>518-010200-
NORTHWEST PLATEAU/NORTHCENTRAL MOUNTAINS

CITY           SKY/WX    TMP DP  RH WIND       PRES   REMARKS
FARMINGTON     FAIR      58  10  15 W24G31    30.00R
LOS ALAMOS     FAIR      54  17  23 W10G22    30.00S
SANTA FE       FAIR      56  23  27 W14       29.95R
TAOS             N/A     54  19  26 W21       29.94S
ANGEL FIRE     FAIR      45  19  36 SW7       29.98R

$$
NMZ402-403-502-505>509-010200-
WESTCENTRAL MOUNTAINS/SOUTHWEST MOUNTAINS

CITY           SKY/WX    TMP DP  RH WIND       PRES   REMARKS
GALLUP         FAIR      60  13  15 NW16      30.08R
GRANTS         FAIR      56  13  17 NW22G32   30.06S
SILVER CITY    FAIR      66  12  12 W17G23    30.03R

$$
NMZ407-409-411-412-010200-
SOUTHERN DESERTS

CITY           SKY/WX    TMP DP  RH WIND       PRES   REMARKS
DEMING         FAIR      72   9   8 W17       29.97S
LAS CRUCES     FAIR      73  13  10 W16G25    29.96S
HOLLOMAN AFB   FAIR      70  21  16 S9        29.97S
ALAMOGORDO     FAIR      68  18  14 CALM      29.96R
T OR C         FAIR      72   9   8 NW13      29.94S

$$
NMZ519>523-010200-
CENTRAL VALLEYS/CENTRAL HIGHLANDS

CITY           SKY/WX    TMP DP  RH WIND       PRES   REMARKS
ALBUQUERQUE    FAIR      63  11  13 N17       29.98S
DOUBLE EAGLE   PTCLDY    61  16  17 NW17      30.00S
MORIARTY ARPT  FAIR      58  19  21 W20G25    29.98S
CLINES CORNERS FAIR      52  16  24 W33G43    29.97
BELEN          FAIR      66  12  12 NW16      29.97S
SOCORRO        FAIR      68  14  12 NW17      29.97R

$$
NMZ524>526-539-540-010200-
SOUTHCENTRAL MOUNTAINS

CITY           SKY/WX    TMP DP  RH WIND       PRES   REMARKS
RUIDOSO        NOT AVBL

$$
NMZ527>531-010200-
NORTHEAST HIGHLANDS/NORTHEAST PLAINS

CITY           SKY/WX    TMP DP  RH WIND       PRES   REMARKS
LAS VEGAS      FAIR      54  20  26 NW17      29.93R
RATON          FAIR      53  23  31 SW6       29.87S
CLAYTON        FAIR      46  28  49 W16       29.88R

$$
NMZ532>537-010200-
EASTCENTRAL PLAINS

CITY           SKY/WX    TMP DP  RH WIND       PRES   REMARKS
SANTA ROSA     FAIR      63  26  25 W13G21    29.87S
TUCUMCARI      FAIR      59  37  44 E7        29.84F
CANNON AFB     FAIR      61  33  35 SW6       29.89S
CLOVIS AIRPORT FAIR      59  32  36 SW13      29.90S

$$
NMZ028-029-538-010200-
SOUTHEAST PLAINS

CITY           SKY/WX    TMP DP  RH WIND       PRES   REMARKS
ROSWELL        FAIR      71  19  14 NW9       29.91
ARTESIA        FAIR      72  19  14 W12       29.90R
CARLSBAD       FAIR      72  19  13 W15       29.89S
HOBBS          FAIR      66  19  16 W9        29.92S


$$




USA.gov is the U.S. government's official web portal to all federal, state and local government web resources and services.